Terminal Aerodrome Forecast
Issued by NWS Wichita, KS

Home | Current Version | Previous Version | Text Only | Print | Product List | Glossary On
Versions: 1 2 3 4 5 6 7 8 9 10 11 12 13 14 15
000
FTUS43 KICT 280539
TAFICT
TAF
KICT 280539Z 2806/2906 17009KT P6SM SCT150 BKN300
     FM281500 20015G23KT P6SM SCT300
     FM290000 19009KT P6SM FEW250=

USA.gov is the U.S. government's official web portal to all federal, state and local government web resources and services.